Weather History for Sheboygan, WI

Change the Weather History Date:

Friday, October 21, 2011

  Actual Average Record
Temperature  
Mean Temperature 42 °F -  
Max Temperature 52 °F 57 °F 75 °F (2007)
Min Temperature 30 °F 41 °F 27 °F (1952)
Degree Days  
Heating Degree Days 22    
Moisture  
Dew Point 34 °F    
Average Humidity 80    
Maximum Humidity 100    
Minimum Humidity 52    
Precipitation  
Precipitation 0.00 in - - ()
Sea Level Pressure  
Sea Level Pressure 30.01 in    
Wind  
Wind Speed 6 mph (WNW)    
Max Wind Speed 10 mph    
Max Gust Speed 16 mph    
Visibility 10 miles    
Events      
Averages and records for this station are not official NWS values.
T = Trace of Precipitation, MM = Missing Value Source: NWS Daily Summary

Daily Weather History Graph

Daily Weather History Graph

Search for Another Location

Airport:

Trip Planner

Search our weather history database for the weather conditions in past years. The results will help you decide how hot, cold, wet, or windy it might be!

Date:

Astronomy

Oct. 21, 2011 Rise Set
Actual Time 7:12 AM CDT 5:58 PM CDT
Civil Twilight 6:43 AM CDT 6:27 PM CDT
Nautical Twilight 6:10 AM CDT 7:01 PM CDT
Astronomical Twilight 5:36 AM CDT 7:34 PM CDT
Moon 12:50 AM CDT (10/21) 2:52 PM CDT (10/21)
Length of Visible Light 11h 44m
Length of Day
10h 45m
Waning Crescent, 33% of the Moon is Illuminated
Oct 21
Waning Crescent
Oct 26
New
Nov 2
First Quarter
Nov 10
Full
Nov 18
Last Quarter

Hourly Weather History & Observations

Time (CDT) Temp. Windchill Dew Point Humidity Pressure Visibility Wind Dir Wind Speed Gust Speed Precip Events Conditions
12:53 AM 43.0 °F 37.2 °F 34.0 °F 71% 29.88 in 10.0 mi NW 10.4 mph - N/A   Overcast
1:53 AM 41.0 °F 35.2 °F 34.0 °F 76% 29.91 in 10.0 mi WNW 9.2 mph - N/A   Overcast
2:53 AM 37.9 °F 33.5 °F 33.1 °F 83% 29.92 in 10.0 mi WNW 5.8 mph - N/A   Clear
3:53 AM 37.0 °F 32.4 °F 33.1 °F 86% 29.94 in 10.0 mi NW 5.8 mph - N/A   Clear
4:53 AM 36.0 °F 30.3 °F 33.1 °F 89% 29.96 in 10.0 mi WNW 6.9 mph - N/A   Clear
5:53 AM 35.1 °F 30.1 °F 33.1 °F 92% 29.98 in 10.0 mi West 5.8 mph - N/A   Clear
6:26 AM 35.6 °F 31.7 °F 33.8 °F 93% 29.97 in 10.0 mi WNW 4.6 mph - N/A   Mostly Cloudy
6:53 AM 36.0 °F 31.1 °F 34.0 °F 93% 30.00 in 10.0 mi WNW 5.8 mph - N/A   Overcast
7:53 AM 37.0 °F 32.4 °F 35.1 °F 93% 30.02 in 10.0 mi West 5.8 mph - N/A   Overcast
8:53 AM 39.9 °F 36.7 °F 36.0 °F 86% 30.04 in 10.0 mi West 4.6 mph - N/A   Mostly Cloudy
9:31 AM 42.8 °F 40.1 °F 35.6 °F 76% 30.03 in 10.0 mi NW 4.6 mph - N/A   Scattered Clouds
9:53 AM 44.1 °F 40.8 °F 35.1 °F 71% 30.04 in 10.0 mi WNW 5.8 mph - N/A   Partly Cloudy
10:17 AM 42.8 °F 38.6 °F 33.8 °F 70% 30.04 in 10.0 mi WNW 6.9 mph - N/A   Mostly Cloudy
10:53 AM 43.0 °F 38.8 °F 35.1 °F 74% 30.06 in 10.0 mi West 6.9 mph - N/A   Overcast
11:53 AM 45.0 °F 40.6 °F 36.0 °F 71% 30.05 in 10.0 mi NW 8.1 mph - N/A   Overcast
12:53 PM 48.0 °F - 36.0 °F 63% 30.04 in 10.0 mi NNW 8.1 mph - N/A   Partly Cloudy
1:53 PM 48.9 °F - 35.1 °F 59% 30.03 in 10.0 mi WNW 9.2 mph 16.1 mph N/A   Clear
2:53 PM 50.0 °F - 35.1 °F 57% 30.03 in 10.0 mi West 5.8 mph - N/A   Clear
3:53 PM 51.1 °F - 34.0 °F 52% 30.03 in 10.0 mi West 4.6 mph - N/A   Clear
4:53 PM 51.1 °F - 34.0 °F 52% 30.04 in 10.0 mi WSW 3.5 mph - N/A   Clear
6:53 PM 41.0 °F - 37.0 °F 86% 30.05 in 10.0 mi Calm Calm - N/A   Clear
7:53 PM 39.9 °F - 37.0 °F 89% 30.05 in 10.0 mi Calm Calm - N/A   Clear
8:53 PM 36.0 °F - 34.0 °F 93% 30.05 in 8.0 mi Calm Calm - N/A   Clear
9:53 PM 36.0 °F - 35.1 °F 97% 30.05 in 7.0 mi Calm Calm - N/A   Clear
10:53 PM 34.0 °F 31.0 °F 33.1 °F 96% 30.05 in 6.0 mi WSW 3.5 mph - N/A   Clear
11:53 PM 30.9 °F - 30.9 °F 100% 30.04 in 9.0 mi Calm Calm - N/A   Clear